Regional Weather Roundup
Issued by NWS

Home | Current Version | Previous Version | Graphics & Text | Print | Product List | Glossary On
Versions: 1 2 3 4 5 6 7 8 9 10 11 12 13 14 15 16 17 18 19 20 21 22 23 24 25 26 27 28 29 30 31 32 33 34 35 36 37 38 39 40 41 42 43 44 45 46 47 48 49 50
000
ASUS43 KLSX 240610
RWRMO

WEATHER SUMMARY FOR MISSOURI
NATIONAL WEATHER SERVICE SPRINGFIELD MO
100 AM CDT MON APR 24 2017

NOTE: "FAIR" INDICATES FEW OR NO CLOUDS BELOW 12,000 FEET WITH NO
       SIGNIFICANT WEATHER AND/OR OBSTRUCTIONS TO VISIBILITY.
       CURRENT SKY AND/OR WEATHER CONDITIONS ARE NOT AVAILABLE FOR
       CHILLICOTHE AND FARMINGTON.

MOZ001>031-035>038-043-044-053-054-240700-
...NORTHERN AND WESTERN MISSOURI...

CITY           SKY/WX    TMP DP  RH WIND       PRES   REMARKS
KANSAS CTY INT PTCLDY    49  37  63 S7        29.96F
6HR MIN TEMP:  47; 6HR MAX TEMP:  67;

KANSAS C DTWN  CLEAR     51  37  58 CALM      29.96F
6HR MIN TEMP:  51; 6HR MAX TEMP:  71;

LEE`S SUMMIT   CLOUDY    57  35  43 S6        29.97F
6HR MIN TEMP:  56; 6HR MAX TEMP:  68;

ST JOSEPH      CLOUDY    48  41  76 CALM      29.95F
6HR MIN TEMP:  44; 6HR MAX TEMP:  68;

CHILLICOTHE      N/A     45  38  76 CALM      29.98F
6HR MIN TEMP:  45; 6HR MAX TEMP:  70;

KIRKSVILLE     CLOUDY    53  29  39 S5        29.99F
6HR MIN TEMP:  48; 6HR MAX TEMP:  67;


$$
MOZ066>068-077>081-088>096-101>105-240700-
...SOUTHWEST MISSOURI...

CITY           SKY/WX    TMP DP  RH WIND       PRES   REMARKS
SPRINGFIELD    CLEAR     44  38  79 CALM      29.98S
6HR MIN TEMP:  44; 6HR MAX TEMP:  66;

JOPLIN         CLEAR     43  42  97 SE3       29.98F
6HR MIN TEMP:  43; 6HR MAX TEMP:  64;

BRANSON          N/A     50  34  53 CALM      29.98S

$$
MOZ032>034-039>042-045>050-055>058-069>072-240700-
...CENTRAL MISSOURI...

CITY           SKY/WX    TMP DP  RH WIND       PRES   REMARKS
COLUMBIA       CLOUDY    53  31  42 E6        29.98F
6HR MIN TEMP:  52; 6HR MAX TEMP:  68;

JEFFERSON CITY PTCLDY    46  37  71 CALM      29.98F
6HR MIN TEMP:  46; 6HR MAX TEMP:  73;

ROLLA          CLEAR     46  37  71 CALM      29.97F
6HR MIN TEMP:  43; 6HR MAX TEMP:  66;

WHITEMAN AFB   CLOUDY    46  40  78 CALM      29.97F
OSAGE BEACH    CLEAR     42  40  92 CALM      29.99F

$$
MOZ051-052-059>065-240700-
...EAST CENTRAL MISSOURI...

CITY           SKY/WX    TMP DP  RH WIND       PRES   REMARKS
ST LOUIS INTL  CLEAR     50  37  61 CALM      29.99S
6HR MIN TEMP:  50; 6HR MAX TEMP:  70;

SPIRIT OF STL  CLEAR     42  39  89 CALM      29.98F
6HR MIN TEMP:  41; 6HR MAX TEMP:  69;

ST CHARLES     CLEAR     46  38  73 CALM      29.98S
6HR MIN TEMP:  44; 6HR MAX TEMP:  68;


$$
MOZ072>076-082>087-097>100-106>115-240700-
...SOUTH CENTRAL AND SOUTHEAST MISSOURI...

CITY           SKY/WX    TMP DP  RH WIND       PRES   REMARKS
CAPE GIRARDEAU CLEAR     48  41  76 CALM      29.93F
6HR MIN TEMP:  47; 6HR MAX TEMP:  67;

FARMINGTON     CLEAR     45  37  73 CALM      29.97S
6HR MIN TEMP:  45; 6HR MAX TEMP:  66;

POPLAR BLUFF   CLEAR     51  39  63 NW5       29.92F
6HR MIN TEMP:  51; 6HR MAX TEMP:  67;

WEST PLAINS    CLEAR     49  32  52 CALM      29.98F
6HR MIN TEMP:  43; 6HR MAX TEMP:  67;


$$




USA.gov is the U.S. government's official web portal to all federal, state and local government web resources and services.